Location: Unspecified
(0.0000°N, 0.0000°E)
Time: 08:27:36
(UTC+00:00)

Tiros 1 despin weight - Pass Details

Date: 05 October 2023
Orbit: 583 x 627 km, 48.2° (Epoch: 05 December)

Event Time Altitude Azimuth Distance (km) Brightness Sun altitude
Rises 03:35:28 0° 292° (WNW) 2,786 - -33.2°
Reaches altitude 10° 03:38:22 10° 272° (W) 1,891 - -32.4°
Maximum altitude 03:41:14 17° 230° (SW) 1,484 - -31.7°
Drops below altitude 10° 03:44:08 10° 188° (S) 1,903 - -31.0°
Exits shadow 03:46:12 - 172° (S) 2,517 ? -30.5°
Sets 03:47:05 0° 168° (SSE) 2,813 ? -30.3°
